RH
7 7 6 7 7 7 9 10 12 14 16 18 23 34 35 52 54 53 51 57 54 45 52 84 92 92 87 87 93 84 86 100 100 100 92 63 80 63 62 60 63 50 46 47 47 41 32
8 8 8 9 9 7 8 14 19 21 22 23 20 18 20 28 31 36 32 29 38 29 37 57 80 100 100 95 89 96 92 92 89 88 94 74 67 89 65 61 69 58 46 46 46 44 37
7 8 9 10 10 10 12 16 20 24 32 34 31 29 21 19 19 19 22 24 26 29 44 60 73 100 100 100 99 99 92 86 85 90 100 96 71 67 84 72 76 90 67 56 48 45 47
7 9 9 11 11 12 19 21 22 29 28 34 42 41 33 24 23 21 22 23 26 34 45 60 71 98 100 100 100 100 100 96 99 98 98 100 91 82 92 74 84 85 100 81 60 51 47
7 9 10 10 11 12 16 30 35 32 33 34 41 45 47 43 29 27 25 30 43 55 61 72 82 100 100 100 100 100 100 100 100 100 100 100 99 92 87 88 74 100 100 96 85 70 63
8 8 11 11 12 10 13 17 24 40 44 40 38 43 48 60 45 37 33 42 57 74 90 100 100 96 100 100 98 100 100 100 100 100 100 100 100 98 96 93 76 94 100 100 100 96 84
7 7 9 11 11 12 15 24 27 27 28 35 39 37 50 50 58 44 46 65 86 98 100 100 100 100 100 100 100 100 100 100 100 100 100 100 100 100 99 94 90 94 100 100 100 100 98
7 6 8 10 9 9 13 18 14 9 8 11 21 33 41 47 55 58 49 86 95 98 90 86 96 81 50 47 65 75 83 100 100 100 100 100 100 100 94 87 83 74 82 99 100 99 69
6 6 7 9 8 9 12 10 6 5 4 5 7 12 34 39 43 44 69 92 95 95 84 90 92 64 24 18 43 71 89 100 100 100 100 100 100 100 87 79 82 90 88 82 81 86 84
6 5 6 8 7 9 9 5 4 3 3 3 5 6 14 34 38 46 67 80 98 92 90 94 85 54 24 29 62 94 100 100 100 100 100 99 99 94 99 100 100 97 98 72 48 42 51
6 5 6 7 6 7 5 4 3 2 2 2 3 5 7 25 35 39 62 94 78 94 88 89 83 61 44 39 93 86 99 100 100 100 100 100 100 88 78 94 69 63 62 58 56 55 46
6 5 6 7 5 7 4 3 2 2 2 2 2 4 6 14 31 35 50 72 63 71 95 94 89 74 58 68 92 79 84 80 87 91 85 72 68 73 86 78 62 60 55 49 46 44 32
6 5 6 6 5 7 4 3 2 2 2 2 2 3 6 9 24 35 45 50 61 65 100 100 100 93 74 66 82 87 91 98 95 89 90 90 90 76 72 68 64 62 63 58 51 47 38
6 5 5 6 5 6 3 3 2 2 2 2 2 3 5 8 18 38 41 49 60 98 100 100 100 100 95 77 70 78 91 99 94 93 90 90 96 84 79 77 84 72 56 53 36 36 34
6 5 5 6 6 7 3 3 2 2 3 2 2 3 5 8 13 26 41 50 77 98 100 100 100 100 100 100 100 94 94 95 95 99 99 96 97 91 91 85 71 68 63 49 32 27 17
7 5 5 7 6 7 3 3 2 2 3 2 2 3 4 9 12 25 33 55 81 96 100 100 100 100 100 100 100 100 100 100 100 100 100 99 100 95 79 67 54 43 31 24 18 13 10
7 5 6 6 6 6 3 2 2 3 3 3 2 3 4 9 12 15 31 49 84 91 98 98 100 100 100 100 100 100 100 100 100 100 100 95 77 73 57 40 32 26 18 12 7 6 5
7 5 5 6 6 7 3 2 2 3 3 3 3 3 5 8 9 11 22 49 70 82 100 100 100 100 100 100 100 100 100 100 100 100 87 82 65 56 51 53 62 57 45 23 8 6 3
7 5 5 7 6 7 4 2 2 4 3 3 3 4 5 7 11 14 26 48 73 98 100 100 100 100 100 100 100 100 100 100 98 98 75 67 82 84 77 73 56 45 33 24 16 9 3
8 6 5 7 6 8 4 2 3 4 4 3 4 4 5 8 12 13 22 46 72 94 100 100 100 100 100 100 100 100 98 99 92 83 77 94 96 84 71 60 55 76 82 39 15 10 6
8 6 5 7 7 9 4 3 3 4 4 4 3 4 5 8 9 11 23 41 67 83 100 100 100 98 100 100 100 98 89 96 81 90 100 94 79 67 85 86 80 91 93 65 34 18 8
9 6 6 8 8 10 4 3 3 4 4 5 4 4 7 9 12 16 26 40 66 85 100 98 99 100 100 100 98 87 94 73 96 92 93 80 75 100 94 100 100 100 97 85 76 50 27
9 8 6 8 9 11 5 4 4 5 5 6 6 7 9 12 15 18 26 36 61 82 100 100 100 100 100 100 95 82 74 90 83 97 92 64 90 100 100 100 100 100 100 85 93 93 89
10 9 7 8 11 13 6 4 4 6 6 7 8 7 9 11 14 20 22 29 49 69 96 100 100 100 100 98 83 78 76 71 84 99 91 81 100 100 100 100 100 100 100 100 99 83 95
9 10 8 8 11 15 6 4 5 5 8 8 9 10 11 13 14 18 22 24 33 56 76 99 100 100 100 94 84 65 86 64 100 90 78 81 100 98 100 100 100 100 100 100 100 100 100
10 10 10 9 11 16 6 4 5 5 9 9 10 12 10 12 15 18 20 26 36 47 61 84 100 100 94 85 70 75 83 82 100 75 82 99 99 99 100 100 100 99 100 91 100 100 100
12 11 10 10 10 15 7 4 5 6 9 10 11 13 15 15 16 20 24 27 32 49 70 91 93 91 87 71 88 67 91 100 99 92 60 89 75 74 87 99 100 94 100 94 100 100 100
13 12 11 10 10 15 7 5 6 6 10 11 15 14 17 18 17 20 28 33 39 43 47 58 80 84 70 77 71 88 94 98 100 98 62 82 100 99 86 100 100 100 99 100 100 100 97
14 13 12 11 11 17 7 6 6 6 9 12 16 14 19 19 25 30 38 41 47 56 64 72 66 70 78 69 80 96 100 99 100 100 85 84 87 100 79 74 92 100 100 100 88 96 100
Wind_Speed
70 60 54 44 40 37 36 38 40 47 49 54 59 65 70 76 77 79 77 76 74 74 78 82 87 84 79 75 74 72 72 74 75 73 70 65 64 59 56 50 45 43 50 48 49 53 57
78 68 59 49 45 41 35 35 39 42 45 49 53 58 64 69 72 74 75 72 71 70 73 77 78 86 82 80 74 74 76 75 72 70 69 66 63 64 61 58 48 47 46 48 48 49 53
80 71 65 59 52 45 38 37 37 40 42 44 46 50 55 59 63 66 68 69 68 66 68 70 74 80 84 79 78 76 74 73 71 71 71 71 71 69 67 64 57 53 53 54 59 54 47
86 78 69 60 58 49 41 39 38 40 44 45 44 45 48 51 54 55 59 61 62 62 65 67 70 78 81 79 78 76 76 75 76 76 76 76 74 72 70 67 62 60 57 60 60 60 55
92 85 76 65 60 52 44 41 41 42 45 48 48 47 45 45 49 50 54 56 58 59 58 60 63 72 77 81 79 77 77 77 78 79 77 75 75 72 70 67 65 66 63 60 61 63 61
96 89 82 73 68 60 50 44 44 49 51 51 52 52 49 46 46 47 50 52 55 55 53 54 59 63 68 77 78 78 79 81 83 79 76 74 74 71 70 71 68 66 63 64 64 68 68
100 91 86 78 70 60 51 54 58 59 60 63 59 56 55 53 46 47 45 51 55 55 56 59 58 59 67 71 77 81 83 82 80 77 75 72 72 72 74 72 70 70 68 68 70 75 76
104 96 89 82 74 66 61 63 63 57 54 55 64 61 60 59 52 46 44 49 58 59 59 57 54 54 64 74 79 81 77 75 75 75 73 72 72 74 74 74 74 72 74 75 75 77 79
106 100 93 84 79 71 67 65 56 49 45 42 47 56 64 64 59 49 42 51 55 58 56 57 53 49 54 61 67 70 71 74 73 72 74 72 73 74 74 75 76 78 79 82 84 83 81
110 104 97 89 80 74 68 61 52 44 38 37 37 45 56 67 60 54 45 48 55 57 54 52 49 39 45 56 64 69 71 72 73 72 71 69 71 70 72 74 80 81 86 87 86 87 83
114 107 100 92 81 75 67 60 50 43 37 33 32 36 44 61 64 58 48 49 54 57 53 49 43 37 41 49 65 68 71 70 69 70 70 73 75 76 77 81 84 86 88 89 89 89 87
115 110 103 95 84 77 71 61 52 45 37 31 30 32 37 52 65 60 55 56 51 53 51 46 40 34 37 50 64 64 65 68 70 70 72 74 76 77 80 83 84 84 82 81 81 80 68
118 113 106 96 87 78 72 62 55 45 33 28 29 29 33 46 64 65 60 58 51 46 47 46 40 38 34 41 55 60 63 67 69 68 70 72 75 75 77 78 73 70 73 76 78 81 73
120 114 107 97 89 82 73 63 57 43 30 23 25 28 33 39 53 70 66 56 49 43 48 50 44 39 35 33 38 48 54 60 58 58 58 60 65 65 64 66 71 75 80 83 82 80 78
121 116 108 99 90 83 73 65 58 42 27 18 20 27 32 38 50 63 68 54 48 46 48 53 48 43 36 34 34 35 37 40 43 46 49 51 55 60 66 72 78 81 86 91 86 82 73
122 117 110 100 90 83 73 66 56 42 25 14 16 25 32 35 46 62 65 56 52 49 47 49 51 46 42 37 34 34 35 38 40 44 46 50 56 64 70 77 82 83 81 80 79 72 70
122 116 109 99 90 82 72 64 52 41 25 10 10 23 31 38 46 50 61 57 55 51 46 45 52 50 45 41 39 38 39 39 42 43 48 52 58 67 72 67 60 59 58 61 60 57 55
121 117 108 99 90 82 72 61 48 38 27 10 7 19 29 33 37 38 50 63 57 50 47 43 46 48 47 44 42 40 39 39 40 42 45 54 60 58 51 49 48 42 40 41 41 42 39
121 115 107 98 88 82 71 60 45 34 26 10 7 19 28 29 31 34 44 57 56 52 47 40 40 41 40 40 38 37 36 34 34 41 47 45 37 39 39 34 28 22 25 24 27 27 25
119 115 104 97 88 81 70 58 44 31 21 5 9 18 24 26 32 36 46 61 59 52 47 40 39 37 35 32 32 32 30 27 33 36 35 29 30 23 16 19 24 31 37 31 11 9 11
117 113 103 96 87 80 69 56 40 28 14 7 6 18 23 25 25 28 44 53 57 54 50 46 42 37 33 30 29 29 24 28 31 28 23 21 20 7 20 25 32 35 36 37 36 27 15
114 110 102 94 87 80 68 56 41 28 13 8 5 17 21 21 23 25 40 53 59 55 52 48 41 37 35 29 30 25 25 27 25 25 24 14 1 10 20 23 29 34 38 37 38 30 26
110 107 100 93 87 80 67 54 41 29 15 5 7 17 20 26 29 33 41 53 60 58 54 48 42 39 34 32 30 26 24 21 24 28 16 6 10 4 12 24 24 29 33 32 36 37 36
105 102 98 91 85 79 68 55 40 27 16 3 6 17 24 29 33 36 42 49 58 60 57 51 46 40 35 36 32 26 20 21 19 25 19 12 10 9 9 15 17 22 26 29 35 38 37
101 97 95 88 80 77 64 54 40 27 15 4 6 13 22 27 30 33 37 42 49 57 58 52 46 42 40 37 32 25 24 13 28 21 15 16 11 10 5 5 13 18 19 21 27 32 31
97 92 89 85 77 73 61 50 37 25 14 6 7 13 17 23 26 30 32 35 39 46 51 52 52 45 40 37 30 26 23 18 23 18 17 17 20 16 22 11 11 15 9 19 21 24 25
92 88 86 82 74 68 57 47 35 24 13 6 7 9 10 19 27 31 33 34 38 40 46 51 49 42 41 34 31 29 25 24 23 18 14 19 16 10 14 13 7 5 9 7 15 19 25
87 85 83 79 72 65 54 44 33 21 12 6 9 14 18 20 25 29 33 38 42 45 44 40 41 41 39 35 33 29 26 26 19 16 20 22 17 12 12 10 8 4 6 6 1 5 8
84 81 78 76 69 65 52 41 32 19 11 11 12 14 17 19 22 29 35 40 43 43 40 41 41 40 38 37 33 24 24 23 23 13 19 24 23 18 15 12 11 10 6 5 6 7 6
Wind_Direction
352 344 338 334 327 316 299 289 278 274 264 258 257 256 255 253 251 250 247 246 246 243 240 237 237 237 236 235 237 240 242 244 246 248 252 254 252 250 250 249 254 254 257 255 258 260 259
354 348 344 338 333 323 305 289 282 278 271 264 258 256 252 250 250 248 248 247 245 242 240 236 235 234 234 235 237 240 241 242 244 247 249 251 253 251 251 252 253 256 254 254 259 260 261
355 352 348 341 336 326 309 294 286 273 268 265 259 256 253 251 251 248 247 243 243 239 237 234 234 232 232 233 235 238 241 242 245 248 249 251 253 254 250 253 254 257 257 254 256 261 262
355 354 350 345 337 327 311 298 287 279 272 264 262 257 256 248 247 245 243 241 240 238 236 234 234 230 229 231 233 236 240 242 245 247 250 251 252 250 250 252 256 259 254 253 258 263 262
355 354 351 345 340 329 313 300 292 283 273 268 261 259 257 252 242 242 240 237 236 235 233 231 231 229 228 231 233 236 240 244 246 246 246 245 247 247 250 252 254 257 254 254 260 260 264
354 354 352 348 343 334 324 311 297 290 281 268 258 256 254 250 242 237 237 234 234 231 227 227 228 230 231 232 234 237 241 243 245 243 242 240 244 247 250 251 251 256 255 257 259 259 259
352 353 352 348 344 336 323 313 305 295 281 273 261 250 249 247 241 235 229 233 229 224 222 224 230 235 236 237 236 237 239 241 238 237 238 240 243 246 248 252 253 253 255 255 254 254 257
352 352 352 348 344 338 330 324 314 301 287 272 263 253 239 242 239 233 224 229 227 223 223 227 231 237 237 235 236 236 235 232 232 235 238 242 242 245 250 252 253 255 255 256 256 256 258
351 352 352 348 344 339 336 328 317 306 293 279 262 253 239 236 235 234 221 222 226 224 224 228 232 241 236 231 229 229 227 228 231 235 237 242 243 247 250 253 255 256 254 254 255 257 260
350 352 351 348 345 339 338 331 324 313 300 285 264 251 238 233 231 228 218 220 222 223 223 227 231 239 235 227 225 225 226 228 231 234 239 242 247 252 255 256 256 256 259 258 258 259 259
348 352 351 347 345 341 341 336 330 320 305 287 269 250 237 228 226 225 216 219 218 221 219 223 230 236 233 227 223 226 227 230 233 237 240 242 245 248 252 256 257 258 260 265 265 263 262
348 351 351 347 345 345 344 340 335 326 310 287 258 246 233 223 222 220 214 220 218 218 216 219 225 232 229 228 226 229 232 234 236 240 245 249 252 256 258 261 263 266 268 268 268 267 265
347 350 351 348 345 348 345 342 337 331 314 282 256 236 228 219 217 216 213 218 216 215 215 216 222 226 227 228 230 232 235 238 242 245 249 253 258 260 263 267 269 269 268 267 266 267 267
347 350 352 349 348 348 347 343 340 334 319 283 250 226 220 216 210 211 214 211 213 210 212 215 219 224 224 224 229 234 238 242 248 251 254 258 261 264 266 270 272 271 271 272 273 274 270
346 350 351 350 349 349 348 345 343 340 327 281 237 216 207 210 207 208 212 204 205 207 211 213 216 219 222 225 228 232 237 243 247 253 255 258 265 271 274 275 275 275 278 278 277 274 268
345 349 352 349 350 351 349 347 346 347 336 287 222 209 199 205 204 204 207 197 202 205 210 211 214 217 222 225 230 234 239 245 251 257 264 270 274 276 278 279 281 280 278 277 276 272 267
345 348 351 350 351 352 351 348 347 350 344 322 223 202 195 197 204 203 202 195 202 203 208 210 213 215 219 225 231 238 245 252 259 266 271 276 281 282 284 288 288 286 280 277 275 271 267
344 348 351 351 352 353 352 351 350 348 347 327 217 199 193 197 201 197 194 195 202 200 204 207 210 214 220 226 231 238 246 254 263 270 280 285 285 289 293 296 291 293 295 293 285 276 266
344 347 351 351 352 355 353 352 354 346 338 317 201 185 189 188 192 185 191 193 199 199 202 203 203 208 215 223 231 238 246 256 269 279 286 290 287 292 299 294 318 354 354 322 295 291 275
343 346 350 352 352 356 355 353 357 347 331 344 187 186 183 183 186 189 190 193 199 198 198 199 203 205 210 217 228 238 250 265 276 283 283 277 275 292 311 342 5 12 6 5 357 324 274
343 345 350 352 351 356 355 353 359 345 343 350 182 170 174 185 184 184 186 189 198 199 198 200 204 206 210 219 230 240 254 270 279 269 251 260 270 350 32 21 21 19 18 17 22 23 37
343 344 348 353 350 355 355 353 356 352 343 27 140 170 166 162 164 172 180 191 194 199 201 203 205 210 216 221 233 245 258 272 256 246 238 250 240 43 37 48 41 30 27 30 39 39 37
343 343 347 352 350 352 354 354 355 351 347 42 148 160 159 162 167 178 185 192 195 199 202 205 208 212 218 225 235 245 259 245 235 248 235 195 115 74 49 52 54 33 25 40 47 55 59
342 342 345 351 350 350 350 353 353 349 342 343 174 181 177 179 181 179 187 192 197 200 203 204 209 214 220 229 237 245 239 225 241 233 225 144 144 131 95 81 54 44 48 58 48 60 65
342 342 343 349 350 347 348 349 349 347 340 300 186 194 188 186 187 185 190 194 196 201 203 204 209 214 220 229 234 233 215 222 230 222 190 171 129 78 106 103 53 65 65 75 63 55 48
341 341 343 346 350 346 346 345 347 342 328 292 216 200 202 192 184 187 187 193 194 198 203 205 208 210 221 222 218 203 203 217 230 229 179 168 137 123 92 37 62 53 65 100 103 80 73
340 340 342 344 348 346 344 344 343 342 319 278 220 199 186 194 189 183 181 182 186 191 196 203 207 207 212 207 202 184 197 206 218 253 197 184 170 151 148 114 78 81 136 75 101 99 95
339 339 340 343 345 345 344 342 340 335 304 263 230 212 193 194 191 183 178 181 181 188 192 191 191 197 197 192 178 182 196 210 238 235 218 195 184 193 181 158 151 74 49 201 8 90 113
338 338 339 340 344 342 342 340 335 328 289 238 232 213 196 190 189 184 179 179 182 180 181 183 185 189 190 177 177 187 201 218 208 234 230 208 206 202 211 195 197 188 208 250 300 11 32